$Date,$Time,DM0201B,DM0203B,DM0205B,DM0207B,DM0209B
05/04/99,00:00:01,76,320,-23,1,962
05/04/99,00:05:01,70,321,-23,1,962
05/04/99,00:10:01,162,305,-23,1,962
05/04/99,00:15:01,98,316,-23,1,962
05/04/99,00:20:01,119,318,-23,1,962
05/04/99,00:25:01,124,320,-23,1,960
05/04/99,00:30:01,86,330,-23,1,960
05/04/99,00:35:01,92,322,-23,1,960
05/04/99,00:40:01,121,307,-23,1,960
05/04/99,00:45:01,105,319,-23,1,960
05/04/99,00:50:01,103,309,-23,1,960
05/04/99,00:55:01,70,309,-23,1,960
05/04/99,01:00:01,120,311,-23,1,960
05/04/99,01:05:01,102,311,-23,1,960
05/04/99,01:10:01,82,311,-23,1,960
05/04/99,01:15:01,98,304,-23,1,960
05/04/99,01:20:01,86,304,-23,1,960
05/04/99,01:25:01,76,304,-23,1,960
05/04/99,01:30:01,75,304,-23,1,960
05/04/99,01:35:01,90,306,-23,1,960
05/04/99,01:40:01,74,301,-23,1,960
05/04/99,01:45:01,65,287,-23,1,960
05/04/99,01:50:01,61,297,-23,1,960
05/04/99,01:55:01,125,298,-23,1,960
05/04/99,02:00:01,53,308,-23,1,960
05/04/99,02:05:01,64,301,-23,1,960
05/04/99,02:10:01,87,301,-23,1,960
05/04/99,02:15:01,56,318,-23,1,960
05/04/99,02:20:01,92,300,-23,1,960
05/04/99,02:25:01,128,295,-23,1,960
05/04/99,02:30:01,119,297,-23,1,960
05/04/99,02:35:01,115,297,-23,1,960
05/04/99,02:40:01,70,297,-23,1,960
05/04/99,02:45:01,90,289,-23,1,960
05/04/99,02:50:01,98,289,-23,1,960
05/04/99,02:55:01,107,289,-23,1,960
05/04/99,03:00:01,99,289,-23,1,960
05/04/99,03:05:01,92,292,-23,1,960
05/04/99,03:10:01,86,282,-23,1,960
05/04/99,03:15:01,80,275,-23,1,960
05/04/99,03:20:01,92,285,-23,1,960
05/04/99,03:25:01,94,272,-23,1,960
05/04/99,03:30:01,119,278,-23,1,960
05/04/99,03:35:01,95,278,-23,1,960
05/04/99,03:40:01,109,278,-23,1,960
05/04/99,03:45:01,86,279,-23,1,960
05/04/99,03:50:01,77,269,-23,1,960
05/04/99,03:55:01,103,279,-23,1,960
05/04/99,04:00:01,96,269,-23,1,960
05/04/99,04:05:01,81,281,-23,1,960
05/04/99,04:10:01,75,273,-23,1,960
05/04/99,04:15:01,88,288,-23,1,960
05/04/99,04:20:01,122,301,-23,1,958
05/04/99,04:25:01,87,289,-23,1,958
05/04/99,04:30:01,106,289,-23,1,958
05/04/99,04:35:01,88,288,-23,1,958
05/04/99,04:40:01,114,293,-23,1,958
05/04/99,04:45:01,90,293,-23,1,958
05/04/99,04:50:01,107,293,-23,1,958
05/04/99,04:55:01,95,294,-23,1,958
05/04/99,05:00:01,99,292,-23,1,958
05/04/99,05:05:01,101,279,-23,1,958
05/04/99,05:10:01,112,281,-23,1,958
05/04/99,05:15:01,92,288,-23,1,958
05/04/99,05:20:01,92,294,-23,1,958
05/04/99,05:25:01,67,283,-23,1,958
05/04/99,05:30:01,105,273,-23,1,958
05/04/99,05:35:01,102,299,-23,1,958
05/04/99,05:40:01,80,303,-23,1,958
05/04/99,05:45:01,105,296,-23,1,958
05/04/99,05:50:01,112,301,-23,1,958
05/04/99,05:55:01,106,295,-23,1,958
05/04/99,06:00:01,84,298,-23,1,958
05/04/99,06:05:01,94,302,-23,1,958
05/04/99,06:10:01,135,306,-23,1,958
05/04/99,06:15:01,108,292,-23,1,958
05/04/99,06:20:01,118,289,-23,1,958
05/04/99,06:25:01,128,301,-23,1,958
05/04/99,06:30:01,94,291,-23,1,958
05/04/99,06:35:01,99,302,-23,1,958
05/04/99,06:40:01,101,294,-23,1,958
05/04/99,06:45:01,111,297,-23,1,958
05/04/99,06:50:01,97,298,-23,1,958
05/04/99,06:55:01,80,297,-23,1,958
05/04/99,07:00:01,53,287,-23,1,958
05/04/99,07:05:01,79,300,-23,1,958
05/04/99,07:10:01,64,310,-23,1,958
05/04/99,07:15:01,55,317,-23,1,958
05/04/99,07:20:01,52,309,-23,1,958
05/04/99,07:25:01,29,318,-23,1,958
05/04/99,07:30:01,65,305,-23,1,958
05/04/99,07:35:01,80,309,-23,1,958
05/04/99,07:40:01,58,315,-23,1,956
05/04/99,07:45:01,67,316,-23,1,956
05/04/99,07:50:01,26,328,-23,1,956
05/04/99,07:55:01,63,325,-23,1,956
05/04/99,08:00:01,37,324,-23,1,956
05/04/99,08:05:01,25,328,-23,1,956
05/04/99,08:10:01,61,334,-23,1,956
05/04/99,08:15:01,77,349,-23,1,956
05/04/99,08:20:01,77,314,-23,1,956
05/04/99,08:25:01,69,330,-23,1,956
05/04/99,08:30:01,79,328,-23,1,956
05/04/99,08:35:01,80,347,-23,1,956
05/04/99,08:40:01,55,325,-23,1,956
05/04/99,08:45:01,73,325,-23,1,956
05/04/99,08:50:01,91,338,-23,1,956
05/04/99,08:55:01,83,339,-23,1,956
05/04/99,09:00:01,118,326,-23,1,956
05/04/99,09:05:01,60,317,-23,1,956
05/04/99,09:10:01,103,328,-23,1,956
05/04/99,09:15:01,107,329,-23,1,956
05/04/99,09:20:01,93,325,-23,1,956
05/04/99,09:25:01,67,331,-23,1,956
05/04/99,09:30:01,104,326,-23,1,956
05/04/99,09:35:01,104,339,-23,1,956
05/04/99,09:40:01,44,329,-23,1,956
05/04/99,09:45:01,56,350,-23,1,956
05/04/99,09:50:01,52,345,-23,1,956
05/04/99,09:55:01,69,338,-23,1,956
05/04/99,10:00:01,57,347,-23,1,956
05/04/99,10:05:01,54,324,-23,1,956
05/04/99,10:10:01,57,352,-23,1,956
05/04/99,10:15:01,86,343,-23,1,956
05/04/99,10:20:01,78,326,-23,1,956
05/04/99,10:25:01,101,336,-23,1,956
05/04/99,10:30:01,54,335,-23,1,956
05/04/99,10:35:01,45,321,-23,1,956
05/04/99,10:40:01,78,319,-23,1,956
05/04/99,10:45:01,104,321,-23,1,956
05/04/99,10:50:01,65,320,-23,1,956
05/04/99,10:55:01,128,320,-23,1,956
05/04/99,11:00:01,92,321,-23,1,956
05/04/99,11:05:01,101,323,-23,1,956
05/04/99,11:10:01,76,321,-23,1,956
05/04/99,11:15:01,85,321,-23,1,956
05/04/99,11:20:01,74,308,-23,1,956
05/04/99,11:25:01,101,320,-23,1,956
05/04/99,11:30:01,68,331,-23,1,956
05/04/99,11:35:01,62,331,-23,1,956
05/04/99,11:40:01,40,331,-23,1,956
05/04/99,11:45:01,25,328,-23,1,954
05/04/99,11:50:01,50,350,-23,1,954
05/04/99,11:55:01,32,349,-23,1,954
05/04/99,12:00:01,54,346,-23,1,954
05/04/99,12:05:01,57,4,-23,1,954
05/04/99,12:10:01,62,352,-23,1,954
05/04/99,12:15:01,53,333,-23,1,954
05/04/99,12:20:01,48,338,-23,1,954
05/04/99,12:25:01,48,337,-23,1,954
05/04/99,12:30:01,48,348,-23,1,954
05/04/99,12:35:01,38,359,-23,1,954
05/04/99,12:40:01,48,359,-23,1,954
05/04/99,12:45:01,47,11,-23,1,954
05/04/99,12:50:01,45,12,-23,1,954
05/04/99,12:55:01,61,1,-23,1,954
05/04/99,13:00:01,66,4,-23,1,954
05/04/99,13:05:01,57,7,-23,1,954
05/04/99,13:10:01,69,7,-23,1,954
05/04/99,13:15:01,64,17,-23,1,954
05/04/99,13:20:01,63,5,-23,1,954
05/04/99,13:25:01,62,21,-23,1,954
05/04/99,13:30:01,75,13,-23,1,954
05/04/99,13:35:01,73,10,-23,1,954
05/04/99,13:40:01,86,355,-23,1,954
05/04/99,13:45:01,73,359,-23,1,954
05/04/99,13:50:01,71,357,-23,1,954
05/04/99,13:55:01,61,358,-23,1,954
05/04/99,14:00:01,118,329,-23,1,954
05/04/99,14:05:01,96,334,-23,1,954
05/04/99,14:10:01,68,348,-23,1,954
05/04/99,14:15:01,123,324,-23,1,954
05/04/99,14:20:01,96,317,-23,1,954
05/04/99,14:25:01,89,332,-23,1,954
05/04/99,14:30:01,90,321,-23,1,954
05/04/99,14:35:01,91,318,-23,1,954
05/04/99,14:40:01,97,329,-23,1,954
05/04/99,14:45:01,88,326,-23,1,954
05/04/99,14:50:01,73,331,-23,1,954
05/04/99,14:55:01,70,345,-23,1,954
05/04/99,15:00:01,87,345,-23,1,954
05/04/99,15:05:01,99,331,-23,1,954
05/04/99,15:10:01,112,331,-23,1,954
05/04/99,15:15:01,78,344,-23,1,954
05/04/99,15:20:01,73,344,-23,1,954
05/04/99,15:25:01,71,344,-23,1,954
05/04/99,15:30:01,78,347,-23,1,954
05/04/99,15:35:01,70,334,-23,1,954
05/04/99,15:40:01,81,344,-23,1,954
05/04/99,15:45:01,41,332,-23,1,954
05/04/99,15:50:01,75,344,-23,1,954
05/04/99,15:55:01,64,344,-23,1,954
05/04/99,16:00:01,52,344,-23,1,954
05/04/99,16:05:01,54,351,-23,1,954
05/04/99,16:10:01,61,343,-23,1,954
05/04/99,16:15:01,54,339,-23,1,954
05/04/99,16:20:01,68,342,-23,1,954
05/04/99,16:25:01,52,345,-23,1,954
05/04/99,16:30:01,49,359,-23,1,954
05/04/99,16:35:01,69,351,-23,1,954
05/04/99,16:40:01,68,3,-23,1,954
05/04/99,16:45:01,71,2,-23,1,954
05/04/99,16:50:01,51,1,-23,1,954
05/04/99,16:55:01,51,1,-23,1,954
05/04/99,17:00:01,64,12,-23,1,954
05/04/99,17:05:01,63,1,-23,1,954
05/04/99,17:10:01,53,3,-23,1,954
05/04/99,17:15:01,55,11,-23,1,954
05/04/99,17:20:01,42,1,-23,1,954
05/04/99,17:25:01,55,357,-23,1,954
05/04/99,17:30:01,37,358,-23,1,954
05/04/99,17:35:01,38,345,-23,1,954
05/04/99,17:40:01,40,338,-23,1,954
05/04/99,17:45:01,45,359,-23,1,954
05/04/99,17:50:01,29,1,-23,1,954
05/04/99,17:55:01,23,2,-23,1,954
05/04/99,18:00:01,42,14,-23,1,954
05/04/99,18:05:01,40,2,-23,1,954
05/04/99,18:10:01,41,345,-23,1,954
05/04/99,18:15:01,25,1,-23,1,954
05/04/99,18:20:01,22,4,-23,1,954
05/04/99,18:25:01,45,14,-23,1,954
05/04/99,18:30:01,24,2,-23,1,954
05/04/99,18:35:01,52,344,-23,1,954
05/04/99,18:40:01,30,352,-23,1,954
05/04/99,18:45:01,64,343,-23,1,954
05/04/99,18:50:01,31,340,-23,1,954
05/04/99,18:55:01,26,340,-23,1,954
05/04/99,19:00:01,63,346,-23,1,954
05/04/99,19:05:01,87,344,-23,1,954
05/04/99,19:10:01,62,337,-23,1,954
05/04/99,19:15:01,49,339,-23,1,954
05/04/99,19:20:01,43,340,-23,1,954
05/04/99,19:25:01,20,1,-23,1,954
05/04/99,19:30:01,30,22,-23,1,954
05/04/99,19:35:01,20,340,-23,1,954
05/04/99,19:40:01,13,334,-23,1,954
05/04/99,19:45:01,3,334,-23,1,954
05/04/99,19:50:01,3,319,-23,1,954
05/04/99,19:55:01,19,318,-23,1,954
05/04/99,20:00:01,21,318,-23,1,954
05/04/99,20:05:01,15,307,-23,1,954
05/04/99,20:10:01,27,297,-23,1,954
05/04/99,20:15:01,17,306,-23,1,954
05/04/99,20:20:01,24,295,-23,1,954
05/04/99,20:25:01,14,295,-23,1,954
05/04/99,20:30:01,24,297,-23,1,954
05/04/99,20:35:01,24,312,-23,1,954
05/04/99,20:40:01,13,301,-23,1,954
05/04/99,20:45:01,26,301,-23,1,954
05/04/99,20:50:01,19,307,-23,1,954
05/04/99,20:55:01,29,298,-23,1,954
05/04/99,21:00:01,29,288,-23,1,954
05/04/99,21:05:01,17,301,-23,1,954
05/04/99,21:10:01,5,301,-23,1,954
05/04/99,21:15:01,20,332,-23,1,954
05/04/99,21:20:01,32,332,-23,1,954
05/04/99,21:25:01,3,314,-23,1,954
05/04/99,21:30:01,15,302,-23,1,954
05/04/99,21:35:01,4,302,-23,1,954
05/04/99,21:40:01,4,323,-23,1,954
05/04/99,21:45:01,15,323,-23,1,954
05/04/99,21:50:01,5,323,-23,1,954
05/04/99,21:55:01,5,323,-23,1,954
05/04/99,22:00:01,5,323,-23,1,954
05/04/99,22:05:01,5,323,-23,1,954
05/04/99,22:10:01,5,323,-23,1,954
05/04/99,22:15:01,5,323,-25,1,954
05/04/99,22:20:01,5,323,-25,1,954
05/04/99,22:25:01,5,323,-25,1,954
05/04/99,22:30:01,5,323,-25,1,954
05/04/99,22:35:01,5,323,-25,1,954
05/04/99,22:40:01,5,323,-25,1,954
05/04/99,22:45:01,5,337,-25,1,954
05/04/99,22:50:01,5,337,-25,1,954
05/04/99,22:55:01,5,337,-25,1,954
05/04/99,23:00:01,5,337,-25,1,954
05/04/99,23:05:01,5,337,-25,1,954
05/04/99,23:10:01,5,337,-25,1,954
05/04/99,23:15:01,5,8,-25,1,954
05/04/99,23:20:01,5,18,-25,1,954
05/04/99,23:25:01,15,29,-25,1,954
05/04/99,23:30:01,27,26,-25,1,954
05/04/99,23:35:01,3,46,-25,1,954
05/04/99,23:40:01,6,27,-25,1,954
05/04/99,23:45:01,6,11,-25,1,954
05/04/99,23:50:01,6,11,-25,1,954
05/04/99,23:55:01,6,11,-25,1,954
05/05/99,00:00:01,6,358,-25,1,954
